Вернуться в каталог

STARLINK-36144

АктивенСвязьVLEO
NORAD 67829·PAYLOAD·🇺🇸 United States

Запущен Feb 16, 2026 с Vandenberg Space Force Base

Loading…

Ближайшие Пролёты (ближайшие 24 часа)

TLE

СвежийSource: CelesTrak SupGP

Эпоха: Sep 14, 2026, 14:38 UTC

1 67829C 26033J   26257.61020833  .00028990  00000+0  10499-2 0  2570
2 67829  43.0013 280.3683 0001598 275.9507 107.4278 15.27566843    10

Отслеживайте STARLINK-36144 в реальном времени с AllMySat

Download on the App Store